Regional Weather Roundup
Issued by NWS

Home | Current Version | Previous Version | Text Only | Print | Product List | Glossary On
Versions: 1 2 3 4 5 6 7 8 9 10 11 12 13 14 15 16 17 18 19 20 21 22 23 24 25 26 27 28 29 30 31 32 33 34 35 36 37 38 39 40 41 42 43 44 45 46 47 48 49 50
901
ASUS43 KOAX 010610
RWRNE

WEATHER ROUNDUP FOR NEBRASKA
NATIONAL WEATHER SERVICE OMAHA NE
100 AM CDT WED JUN 01 2016

NOTES: SATELLITE DATA IS BEING USED TO AUGMENT CLOUD COVER ABOVE
       12000 FEET.
       "FAIR" INDICATES FEW OR NO CLOUDS BELOW 12,000 FEET WITH NO
       SIGNIFICANT WEATHER AND/OR OBSTRUCTIONS TO VISIBILITY.

  * THESE STATIONS DO NOT REPORT WEATHER SUCH AS RAIN...SNOW OR FOG.

NEZ001>004-019>022-054>056-010700-
NEBRASKA PANHANDLE

CITY           SKY/WX    TMP DP  RH WIND       PRES   REMARKS
SCOTTSBLUFF    CLEAR     45  37  73 N9        30.17R
6HR MIN TEMP:  45; 6HR MAX TEMP:  71;

ALLIANCE       CLEAR     45  39  79 N9        30.13S
6HR MIN TEMP:  45; 6HR MAX TEMP:  66;

CHADRON        CLEAR     44  38  79 CALM      30.13R
6HR MIN TEMP:  42; 6HR MAX TEMP:  67;

KIMBALL        CLEAR     45  38  79 NW3       30.19R
SIDNEY         CLEAR     44  40  85 N8        30.16R
6HR MIN TEMP:  43; 6HR MAX TEMP:  66;

$$

NEZ057>060-069>072-079>082-010700-
SOUTHWEST NEBRASKA

CITY           SKY/WX    TMP DP  RH WIND       PRES   REMARKS
NORTH PLATTE   CLEAR     52  45  77 E3        30.10R
6HR MIN TEMP:  52; 6HR MAX TEMP:  69;

IMPERIAL       PTCLDY    57  48  72 N8        30.12R
6HR MIN TEMP:  57; 6HR MAX TEMP:  69;

LEXINGTON      CLEAR     57  51  79 N13       30.07R
MCCOOK         CLEAR     54  49  83 W5        30.08R
6HR MIN TEMP:  54; 6HR MAX TEMP:  72;

OGALLALA       CLEAR     51  42  70 W3        30.12R
$$

NEZ005>010-023>029-035>040-094-010700-
NORTH CENTRAL NEBRASKA

CITY           SKY/WX    TMP DP  RH WIND       PRES   REMARKS
VALENTINE      CLEAR     49  43  80 SW7       30.08R
6HR MIN TEMP:  48; 6HR MAX TEMP:  68;

AINSWORTH      CLEAR     53  45  75 W6        30.07S
BROKEN BOW     CLEAR     54  47  77 CALM      30.08R
6HR MIN TEMP:  54; 6HR MAX TEMP:  71;

O`NEILL        CLEAR     56  46  69 NW8       30.04S
THEDFORD       CLEAR     51  44  79 CALM      30.10S
$$

NEZ041-046>049-061>064-073>077-083>087-010700-
SOUTH CENTRAL NEBRASKA

CITY           SKY/WX    TMP DP  RH WIND       PRES   REMARKS
GRAND ISLAND   CLEAR     60  50  69 W8        30.05R
6HR MIN TEMP:  60; 6HR MAX TEMP:  74;

AURORA         CLEAR     59  52  78 SW5       30.03R
HASTINGS       CLEAR     61  50  67 CALM      30.04S
6HR MIN TEMP:  60; 6HR MAX TEMP:  73;

HEBRON         PTCLDY    60  57  88 CALM      30.02F
HOLDREGE       CLEAR     59  48  67 CALM      30.06S
KEARNEY *      PTCLDY    59  50  72 SW7       30.05F
YORK           CLEAR     59  48  67 SW7       30.02S
$$

NEZ011>018-030>034-042>045-010700-
NORTHEAST NEBRASKA

CITY           SKY/WX    TMP DP  RH WIND       PRES   REMARKS
NORFOLK        CLEAR     59  46  62 NW8       30.02S
6HR MIN TEMP:  59; 6HR MAX TEMP:  73;

ALBION         CLEAR     57  46  66 N6        30.05S
BLAIR          PTCLDY    63  50  62 SW6       29.98S
FREMONT        CLEAR     64  47  53 SW6       29.99S
TEKAMAH        CLEAR     62  46  55 SW10      29.96S
6HR MIN TEMP:  61; 6HR MAX TEMP:  78;

WAYNE          PTCLDY    57  51  79 NW6       30.01S
$$

NEZ050>053-065>068-078-088>093-010700-
SOUTHEAST NEBRASKA

CITY           SKY/WX    TMP DP  RH WIND       PRES   REMARKS
LINCOLN        MOCLDY    65  53  65 CALM      30.00S
6HR MIN TEMP:  64; 6HR MAX TEMP:  77;

OMAHA EPPLEY   PTCLDY    61  55  81 E3        29.97S
6HR MIN TEMP:  61; 6HR MAX TEMP:  77;

BEATRICE       CLEAR     61  57  87 CALM      30.00S
FALLS CITY     CLOUDY    63  59  87 W6        29.98R
6HR MIN TEMP:  63; 6HR MAX TEMP:  77;

NEBRASKA CITY  PTCLDY    63  57  79 W6        29.99S
PLATTSMOUTH    CLEAR     67  55  66 SW5       29.98S
$$

NEZ044-045-051>053-067-010700-
OMAHA AREA

CITY           SKY/WX    TMP DP  RH WIND       PRES   REMARKS
OMAHA EPPLEY   PTCLDY    61  55  81 E3        29.97S
6HR MIN TEMP:  61; 6HR MAX TEMP:  77;

BLAIR          PTCLDY    63  50  62 SW6       29.98S
FREMONT        CLEAR     64  47  53 SW6       29.99S
MILLARD        CLEAR     59  54  84 CALM      29.98S
OFFUTT AFB     CLEAR     59  55  88 S2        29.97R
PLATTSMOUTH    CLEAR     67  55  66 SW5       29.98S
WAHOO          FAIR      64  51  62 SW3       29.98F
$$




USA.gov is the U.S. government's official web portal to all federal, state and local government web resources and services.